"Pseudo-MPEC" for P10NVCX

Created 2019 May 19 15:07:23 UT using Find_Orb

Click here for an explanation of pseudo-MPECs

 
 Astrometry: 
     P10NVCX  C2019 05 12D@Txy'L;Astrometryh#Ep]fS+b;Y*L9(Z1yBhBsfcSt;R!gGCjFF51
     P10NVCX  C2019 05 12m'3F3OlYh_a#q;y9]r%KSXT]YQND/9EBh;iredacted;G)Nc`yX_F51
     P10NVCX  C2019 05 128oWqclickJ]J@oX#Nc+Tb;m-7[H]+/l.2+!'=LQherewqI/OwsZRF51
     P10NVCX  C2019 05 12[uyB3[jmrOrue*'forfeD8qxiBGyqDLRP-'POnexplanation1sbF51

Station data:
(F51) Pan-STARRS 1, Haleakala  (N20.707235 W156.255910)  US/Hawaii.
   Observers N. Primak, A. Schultz, S. Watters, J. Thiel, T. Goggia. Measurer
   PS1 Science Consortium. 1.8-m Ritchey-Chrétien + CCD.

Orbital elements:  P10NVCX
   Perihelion 2019 Jan 29.939958 +/- 114 TT = 22:33:32 (JD 2458513.439958)
Epoch 2019 May 13.0 TT = JDT 2458616.5   Earth MOID: 0.3550   AutoNEOCP
M  42.25020857 +/- 44               (J2000 ecliptic)
n   0.40995722 +/- 0.285            Peri.  324.39712 +/- 100
a   1.79463866 +/- 0.831            Node   204.18055 +/- 53
e   0.2648323 +/- 0.283             Incl.   22.34452 +/- 19
P   2.40/878.12d           H 21.6   G  0.15   U 11.9  SR
q 1.31936025 +/- 0.634    Q 2.26991708 +/- 35.2
From 4 observations 2019 May 12 (52.8 min); mean residual 0".06
Residuals in arcseconds: 
190512 F51  .04+  .05-    190512 F51  .08+  .04-    
190512 F51  .10-  .09+    190512 F51  .02-  .00     

Ephemerides (geocentric):
Date (UTC) HH   RA              Dec         delta   r     elong  mag " sig PA
---- -- -- --  -------------   -----------  ------ ------ -----  --- ---- ---
2019 05 19 15  16 15 58.438   +14 34 00.39  .60027 1.5414 144.8 22.5  34d 172
2019 05 19 16  16 15 55.888   +14 34 53.81  .60046 1.5416 144.8 22.5  34d 172
2019 05 19 17  16 15 53.338   +14 35 47.11  .60066 1.5417 144.8 22.5  34d 172
2019 05 19 18  16 15 50.788   +14 36 40.32  .60085 1.5418 144.7 22.5  34d 172
2019 05 19 19  16 15 48.239   +14 37 33.41  .60104 1.5420 144.7 22.5  34d 172
2019 05 19 20  16 15 45.689   +14 38 26.41  .60123 1.5421 144.7 22.5  34d 172
2019 05 19 21  16 15 43.140   +14 39 19.30  .60142 1.5423 144.7 22.5  34d 172
2019 05 19 22  16 15 40.591   +14 40 12.08  .60162 1.5424 144.7 22.5  34d 172
2019 05 19 23  16 15 38.042   +14 41 04.76  .60181 1.5425 144.7 22.5  34d 172
2019 05 20 00  16 15 35.493   +14 41 57.34  .60200 1.5427 144.7 22.5  34d 172
2019 05 20 01  16 15 32.945   +14 42 49.81  .60220 1.5428 144.7 22.5  34d 172
2019 05 20 02  16 15 30.397   +14 43 42.17  .60239 1.5430 144.6 22.5  34d 172
2019 05 20 03  16 15 27.849   +14 44 34.43  .60258 1.5431 144.6 22.5  34d 172
2019 05 20 04  16 15 25.301   +14 45 26.59  .60278 1.5432 144.6 22.5  34d 172
2019 05 20 05  16 15 22.754   +14 46 18.64  .60297 1.5434 144.6 22.5  34d 172
2019 05 20 06  16 15 20.206   +14 47 10.59  .60317 1.5435 144.6 22.5  34d 172
2019 05 20 07  16 15 17.659   +14 48 02.43  .60336 1.5437 144.6 22.5  34d 172
2019 05 20 08  16 15 15.113   +14 48 54.17  .60356 1.5438 144.6 22.5  34d 172
2019 05 20 09  16 15 12.566   +14 49 45.80  .60375 1.5439 144.6 22.5  34d 172
2019 05 20 10  16 15 10.020   +14 50 37.33  .60395 1.5441 144.5 22.5  34d 172
2019 05 20 11  16 15 07.475   +14 51 28.76  .60415 1.5442 144.5 22.5  34d 172
2019 05 20 12  16 15 04.929   +14 52 20.08  .60434 1.5444 144.5 22.5  34d 172
2019 05 20 13  16 15 02.384   +14 53 11.29  .60454 1.5445 144.5 22.5  34d 172
2019 05 20 14  16 14 59.839   +14 54 02.40  .60474 1.5446 144.5 22.5  34d 172
2019 05 20 15  16 14 57.295   +14 54 53.41  .60493 1.5448 144.5 22.5  34d 172
2019 05 20 16  16 14 54.751   +14 55 44.31  .60513 1.5449 144.5 22.5  34d 172
2019 05 20 17  16 14 52.207   +14 56 35.11  .60533 1.5451 144.5 22.5  34d 172
2019 05 20 18  16 14 49.663   +14 57 25.80  .60553 1.5452 144.4 22.5  34d 172
2019 05 20 19  16 14 47.120   +14 58 16.39  .60573 1.5453 144.4 22.5  34d 172
2019 05 20 20  16 14 44.578   +14 59 06.87  .60592 1.5455 144.4 22.5  34d 172
2019 05 20 21  16 14 42.036   +14 59 57.25  .60612 1.5456 144.4 22.5  34d 172
2019 05 20 22  16 14 39.494   +15 00 47.53  .60632 1.5458 144.4 22.5  34d 172
2019 05 20 23  16 14 36.952   +15 01 37.70  .60652 1.5459 144.4 22.5  34d 172
2019 05 21 00  16 14 34.411   +15 02 27.76  .60672 1.5460 144.4 22.5  34d 172
2019 05 21 01  16 14 31.871   +15 03 17.72  .60692 1.5462 144.4 22.5  34d 171
2019 05 21 02  16 14 29.331   +15 04 07.58  .60712 1.5463 144.3 22.5  34d 171
2019 05 21 03  16 14 26.791   +15 04 57.33  .60732 1.5465 144.3 22.5  34d 171
2019 05 21 04  16 14 24.252   +15 05 46.98  .60752 1.5466 144.3 22.5  34d 171
2019 05 21 05  16 14 21.713   +15 06 36.52  .60772 1.5467 144.3 22.6  34d 171
2019 05 21 06  16 14 19.175   +15 07 25.96  .60792 1.5469 144.3 22.6  34d 171
2019 05 21 07  16 14 16.637   +15 08 15.30  .60813 1.5470 144.3 22.6  34d 171
2019 05 21 08  16 14 14.100   +15 09 04.53  .60833 1.5472 144.3 22.6  34d 171
2019 05 21 09  16 14 11.563   +15 09 53.65  .60853 1.5473 144.3 22.6  34d 171
2019 05 21 10  16 14 09.026   +15 10 42.68  .60873 1.5474 144.2 22.6  34d 171
2019 05 21 11  16 14 06.491   +15 11 31.59  .60893 1.5476 144.2 22.6  34d 171
2019 05 21 12  16 14 03.955   +15 12 20.41  .60914 1.5477 144.2 22.6  34d 171
2019 05 21 13  16 14 01.420   +15 13 09.11  .60934 1.5479 144.2 22.6  34d 172
2019 05 21 14  16 13 58.886   +15 13 57.72  .60954 1.5480 144.2 22.6  34d 172